Location: Newark
(33.2404°N, 35.6778°E)
Time: 01:11:00
(UTC+00:00)

Hubble Space Telescope - Pass Details

Date: 03 February 2020
Orbit: 536 x 540 km, 28.5° (Epoch: 27 February)

Event Time Altitude Azimuth Distance (km) Brightness Sun altitude
Exits shadow 03:19:31 20° 238° (WSW) 1,249 2.2 -15.5°
Maximum altitude 03:21:55 42° 177° (S) 766 1.6 -15.0°
Drops below altitude 10° 03:25:48 10° 106° (ESE) 1,777 4.8 -14.2°
Sets 03:28:08 0° 99° (E) 2,668 6.4 -13.7°
